Skip Page Navigation
NASA JPL Caltech
NASA Logo - Jet Propulsion Laboratory + View the NASA Portal
+ Center for Near-Earth Object Studies
JPL Home Earth Solar System Stars & Galaxies Technology
JPL Solar System Dynamics
BODIES ORBITS EPHEMERIDES TOOLS PHYSICAL DATA DISCOVERY FAQ SITE MAP
JPL Small-Body Database Browser
Search: [ help ]  
214862 (2006 YL39)
Classification: Main-belt Asteroid          SPK-ID: 2214862
Ephemeris | Orbit Diagram | Orbital Elements | Mission Design | Physical Parameters | Discovery Circumstances | Close-Approach Data ]

[ show orbit diagram ]
Orbital Elements at Epoch 2459000.5 (2020-May-31.0) TDB
Reference: JPL 11 (heliocentric ecliptic J2000)
 Element Value Uncertainty (1-sigma)   Units 
e .0685724105373689 6.1656e-08  
a 3.129578222441334 4.0553e-08 au
q 2.914975499763278 2.0721e-07 au
i 10.84094405950158 6.5241e-06 deg
node 94.59132793498753 3.7337e-05 deg
peri 140.5148113053775 6.2491e-05 deg
M 346.9532357602353 5.1005e-05 deg
tp 2459073.787086567004
(2020-Aug-12.28708657)
0.00028666 TDB
period 2022.214142853029
5.54
3.9305e-05
1.076e-07
d
yr
n .1780226892746859 3.4602e-09 deg/d
Q 3.34418094511939 4.3334e-08 au
  Orbit Determination Parameters
   # obs. used (total)      204  
   data-arc span      6256 days (17.13 yr)  
   first obs. used      2003-03-12  
   last obs. used      2020-04-27  
   planetary ephem.      DE431  
   SB-pert. ephem.      SB431-N16  
   condition code      0  
   norm. resid. RMS      .59144  
   source      ORB  
   producer      Otto Matic  
   solution date      2020-May-21 09:12:09  

Additional Information
 Earth MOID = 1.91123 au 
 Jupiter MOID = 1.72379 au 
 T_jup = 3.182 
[ hide covariance matrix ]
Orbital Elements at Epoch 2457415.5 (2016-Jan-28.0) TDB
Reference: JPL 11 (heliocentric ecliptic J2000)
 Element Value Uncertainty (1-sigma)   Units 
e .06812035884853587 6.1715e-08  
q 2.918042510879826 2.0741e-07 au
tp 2457044.277556223485
(2015-Jan-21.77755622)
0.00028635 TDB
node 94.61233009701093 3.7341e-05 deg
peri 139.4967780853987 6.2688e-05 deg
i 10.83888356101347 6.5226e-06 deg
  Orbit Determination Parameters
   # obs. used (total)      204  
   data-arc span      6256 days (17.13 yr)  
   first obs. used      2003-03-12  
   last obs. used      2020-04-27  
   planetary ephem.      DE431  
   SB-pert. ephem.      SB431-N16  
   condition code      0  
   norm. resid. RMS      .59144  
   source      ORB  
   producer      Otto Matic  
   solution date      2020-May-21 09:12:09  

Additional Information
 Jupiter MOID = 1.72379 au 
 T_jup = 3.182 
Orbit Covariance (6×6)
  e q tp node peri i
e 3.808719419117001E-15 -1.260260319185269E-14 -1.100334187481675E-12 -1.006982958998219E-14 -1.78001256365021E-13 -1.303704024597422E-16
q -1.260260319185269E-14 4.30195121225967E-14 3.173682645456882E-12 4.124316511218972E-14 5.401059851726331E-13 2.490252161325427E-15
tp -1.100334187481675E-12 3.173682645456882E-12 8.19945342297738E-8 -6.312498688195422E-11 1.449566407591975E-8 -4.74459951310869E-12
node -1.006982958998219E-14 4.124316511218972E-14 -6.312498688195422E-11 1.394335266111964E-9 -1.379474237920075E-9 8.172266200652187E-12
peri -1.78001256365021E-13 5.401059851726331E-13 1.449566407591975E-8 -1.379474237920075E-9 3.929838615231215E-9 -8.686411004431264E-12
i -1.303704024597422E-16 2.490252161325427E-15 -4.74459951310869E-12 8.172266200652187E-12 -8.686411004431264E-12 4.254457095554018E-11

Ephemeris | Orbit Diagram | Orbital Elements | Mission Design | Physical Parameters | Discovery Circumstances | Close-Approach Data ]

Physical Parameter Table
Parameter Symbol Value Units Sigma Reference Notes
absolute magnitude H 15.6   n/a MPO470307  

214862 (2006 YL39)          Discovered 2006-Dec-22 by Spacewatch at Kitt Peak
Reference: 20090509/Numbers.arcLast Updated: 2009-05-11

[ show close-approach data ]
Alternate Designations
 2006 YL39 = 2005 QY153 
Ephemeris | Orbit Diagram | Orbital Elements | Mission Design | Physical Parameters | Discovery Circumstances | Close-Approach Data ]
ABOUT SSD CREDITS/AWARDS PRIVACY/COPYRIGHT GLOSSARY LINKS
FirstGov 2020-Sep-20 10:33 UT
(server date/time)  
NASA Home Page
Site Manager:   Ryan S. Park
Webmaster  Alan B. Chamberlin